This demonstration page uses our WeatherBlox Daily Observations layout. Learn more.

39.29038, -76.61219

Hourly Observations for September 12, 2016

Temp ( °F °C ) Dew Point ( °F °C ) Humidity (%) Winds ( mph kmh ) Pressure ( in mb ) Visibility ( mi km ) Precip ( " mm )
12:54 am 00:54 undefined 73 22.8 53 11.7 50 50 undefined N/A 30.15 1021 N/A 0 0
1:54 am 01:54 undefined 72 22.2 52 11.1 50 50 undefined N/A 30.17 1022 N/A 0 0
2:54 am 02:54 undefined 71 21.7 50 10 47 47 undefined N/A 30.17 1022 N/A 0 0
3:54 am 03:54 undefined 70 21.1 49 9.4 47 47 undefined N/A 30.18 1022 N/A 0 0
4:54 am 04:54 undefined 68 20 48 8.9 49 49 undefined N/A 30.19 1023 N/A 0 0
5:54 am 05:54 undefined 67 19.4 48 8.9 51 51 undefined N/A 30.21 1023 N/A 0 0
6:54 am 06:54 undefined 67 19.4 49 9.4 53 53 undefined N/A 30.23 1024 N/A 0 0
7:54 am 07:54 undefined 67 19.4 49 9.4 53 53 undefined N/A 30.24 1024 N/A 0 0
8:54 am 08:54 undefined 70 21.1 48 8.9 46 46 undefined N/A 30.25 1024 N/A 0 0
9:54 am 09:54 undefined 72 22.2 47 8.3 41 41 undefined N/A 30.26 1025 N/A 0 0
10:54 am 10:54 undefined 75 23.9 45 7.2 34 34 undefined N/A 30.26 1025 N/A 0 0
11:54 am 11:54 undefined 78 25.6 41 5 27 27 undefined N/A 30.25 1024 N/A 0 0
12:54 pm 12:54 undefined 78 25.6 44 6.7 30 30 undefined N/A 30.24 1024 N/A 0 0
1:54 pm 13:54 undefined 80 26.7 45 7.2 29 29 undefined N/A 30.22 1024 N/A 0 0
2:54 pm 14:54 undefined 81 27.2 45 7.2 28 28 undefined N/A 30.21 1023 N/A 0 0
3:54 pm 15:54 undefined 80 26.7 46 7.8 30 30 undefined N/A 30.19 1022 N/A 0 0
4:54 pm 16:54 undefined 80 26.7 47 8.3 31 31 undefined N/A 30.18 1022 N/A 0 0
7:54 pm 19:54 undefined 78 25.6 49 9.4 36 36 undefined N/A 30.18 1022 N/A 0 0
9:54 pm 21:54 undefined 76 24.4 51 10.6 42 42 undefined N/A 30.19 1022 N/A 0 0
10:54 pm 22:54 undefined 75 23.9 55 12.8 50 50 undefined N/A 30.2 1023 N/A 0 0
11:54 pm 23:54 undefined 73 22.8 59 15 62 62 undefined N/A 30.21 1023 N/A 0 0

Powered by AerisWeather